Tracking 19562 objects as of 25-Mar-2019
HD Live streaming from Space Station
objects crossing your sky now

FLOCK 2K 32

Track FLOCK 2K 32 now!
10-day predictions
FLOCK 2K 32 is classified as:


NORAD ID: 42870
Int'l Code: 2017-042AX
Perigee: 450.5 km
Apogee: 464.7 km
Inclination: 97.0 °
Period: 93.6 minutes
Semi major axis: 6828 km
RCS: Unknown
Launch date: July 14, 2017
Source: United States (US)
Launch site: TYURATAM MISSILE AND SPACE COMPLEX (TTMTR)
aabbcc
Your satellite tracking list
Your tracking list is empty




NASA's NSSDC Master Catalog

Two Line Element Set (TLE):
1 42870U 17042AX  19083.62766170  .00001905  00000-0  52024-4 0  9993
2 42870  96.9511 330.8604 0010395 162.8378 197.3222 15.38529690 94738
Source of the keplerian elements: AFSPC